Weather History for KPCW - December, 2013

Change the Weather History Date:

Monday, December 23, 2013

  Actual Average (KTOL) Record (KTOL)
Temperature  
Mean Temperature 32 °F 28 °F  
Max Temperature 37 °F 34 °F 59 °F (1941)
Min Temperature 26 °F 21 °F -14 °F (1989)
Degree Days  
Heating Degree Days 34 37  
Month to date heating degree days 786  
Since 1 July heating degree days 2019  
Cooling Degree Days 0 0  
Month to date cooling degree days 0  
Year to date cooling degree days 793  
Moisture  
Dew Point 27 °F    
Average Humidity 77    
Maximum Humidity 89    
Minimum Humidity 64    
Precipitation  
Precipitation 0.00 in 0.09 in 0.74 in (2003)
Month to date precipitation 2.02  
Year to date precipitation 33.58  
Snow  
Snow 0.00 in 0.20 in - ()
Month to date snowfall 5.0  
Since 1 July snowfall 7.1  
Snow Depth -    
Sea Level Pressure  
Sea Level Pressure 30.19 in    
Wind  
Wind Speed 12 mph (West)    
Max Wind Speed 18 mph    
Max Gust Speed -    
Visibility 10 miles    
Events Rain    
T = Trace of Precipitation, MM = Missing Value Source: NWS Daily Summary

Daily Weather History Graph

Daily Weather History Graph

Search for Another Location

Airport or City:

Trip Planner

Search our weather history database for the weather conditions in past years. The results will help you decide how hot, cold, wet, or windy it might be!

Date:

Astronomy

Dec. 23, 2013 Rise Set
Actual Time 7:55 AM EST 5:05 PM EST
Civil Twilight 7:24 AM EST 5:37 PM EST
Nautical Twilight 6:49 AM EST 6:12 PM EST
Astronomical Twilight 6:15 AM EST 6:46 PM EST
Moon 11:19 PM EST (12/23) 11:16 AM EST (12/23)
Length of Visible Light 10h 13m
Length of Day
9h 10m
Waning Gibbous, 68% of the Moon is Illuminated
Dec 23
Waning Gibbous
Dec 25
Last Quarter
Jan 1
New
Jan 7
First Quarter
Jan 15
Full

Hourly Weather History & Observations

Time (EST) Temp. Windchill Dew Point Humidity Pressure Visibility Wind Dir Wind Speed Gust Speed Precip Events Conditions
12:13 AM 37.4 °F 29.3 °F 33.8 °F 87% 29.98 in 10.0 mi WSW 12.7 mph - N/A   Overcast
12:34 AM 37.4 °F 30.3 °F 33.8 °F 87% 29.98 in 10.0 mi WSW 10.4 mph - N/A   Overcast
12:53 AM 37.9 °F 32.1 °F 34.0 °F 86% 29.98 in 10.0 mi WSW 8.1 mph - N/A   Overcast
1:14 AM 37.4 °F 32.1 °F 33.8 °F 87% 29.99 in 10.0 mi West 6.9 mph - N/A   Overcast
1:33 AM 37.4 °F 29.3 °F 33.8 °F 87% 30.00 in 10.0 mi West 12.7 mph - N/A   Overcast
1:53 AM 36.9 °F 30.7 °F 34.0 °F 89% 30.00 in 10.0 mi West 8.1 mph - N/A   Overcast
2:14 AM 37.4 °F 31.4 °F 33.8 °F 87% 30.01 in 10.0 mi West 8.1 mph - N/A   Overcast
2:33 AM 37.4 °F 31.4 °F 33.8 °F 87% 30.01 in 10.0 mi West 8.1 mph - N/A   Overcast
2:43 AM 37.4 °F 31.4 °F 33.8 °F 87% 30.01 in 10.0 mi West 8.1 mph - N/A   Overcast
3:14 AM 37.4 °F 30.3 °F 33.8 °F 87% 30.01 in 10.0 mi West 10.4 mph - N/A   Overcast
3:33 AM 37.4 °F 30.3 °F 33.8 °F 87% 30.02 in 10.0 mi West 10.4 mph - N/A   Overcast
3:53 AM 36.9 °F 28.7 °F 32.9 °F 86% 30.05 in 10.0 mi West 12.7 mph - N/A   Overcast
4:08 AM 37.4 °F 29.8 °F 33.8 °F 87% 30.05 in 10.0 mi West 11.5 mph - N/A   Overcast
4:33 AM 35.6 °F 26.6 °F 32.0 °F 87% 30.04 in 10.0 mi West 13.8 mph - N/A   Overcast
4:53 AM 36.0 °F 28.0 °F 31.1 °F 82% 30.05 in 10.0 mi West 11.5 mph - N/A   Overcast
5:14 AM 35.6 °F 27.5 °F 32.0 °F 87% 30.05 in 10.0 mi West 11.5 mph - N/A   Overcast
5:33 AM 35.6 °F 27.1 °F 30.2 °F 81% 30.07 in 10.0 mi West 12.7 mph - N/A   Overcast
5:53 AM 34.9 °F 26.6 °F 31.1 °F 86% 30.08 in 10.0 mi West 11.5 mph - N/A   Overcast
6:14 AM 35.6 °F 27.5 °F 30.2 °F 81% 30.08 in 10.0 mi West 11.5 mph - N/A   Overcast
6:33 AM 35.6 °F 28.0 °F 30.2 °F 81% 30.08 in 10.0 mi West 10.4 mph - N/A   Overcast
6:53 AM 35.6 °F 28.6 °F 30.2 °F 81% 30.09 in 10.0 mi West 9.2 mph - N/A   Overcast
7:13 AM 35.6 °F 27.5 °F 30.2 °F 81% 30.11 in 10.0 mi West 11.5 mph - N/A   Overcast
7:33 AM 35.6 °F 26.6 °F 30.2 °F 81% 30.12 in 10.0 mi West 13.8 mph - N/A   Overcast
7:53 AM 35.6 °F 26.2 °F 30.2 °F 81% 30.13 in 10.0 mi West 15.0 mph - N/A   Overcast
8:13 AM 35.6 °F 26.2 °F 28.4 °F 75% 30.13 in 10.0 mi West 15.0 mph - N/A   Overcast
8:34 AM 35.6 °F 26.6 °F 28.4 °F 75% 30.16 in 10.0 mi West 13.8 mph - N/A   Overcast
8:53 AM 33.8 °F 23.9 °F 28.4 °F 81% 30.17 in 6.0 mi West 15.0 mph - N/A   Haze
9:13 AM 33.8 °F 24.3 °F 28.4 °F 81% 30.18 in 10.0 mi West 13.8 mph - N/A   Overcast
9:33 AM 33.8 °F 24.8 °F 28.4 °F 81% 30.18 in 10.0 mi West 12.7 mph - N/A   Overcast
9:53 AM 35.6 °F 26.2 °F 28.4 °F 75% 30.19 in 10.0 mi West 15.0 mph - N/A   Overcast
10:13 AM 33.8 °F 24.8 °F 28.4 °F 81% 30.21 in 10.0 mi West 12.7 mph - N/A   Overcast
10:34 AM 33.8 °F 24.3 °F 28.4 °F 81% 30.22 in 10.0 mi West 13.8 mph - N/A   Overcast
10:53 AM 33.8 °F 23.9 °F 28.4 °F 81% 30.22 in 10.0 mi West 15.0 mph - N/A Rain Light Rain
11:13 AM 33.8 °F 23.9 °F 28.4 °F 81% 30.23 in 10.0 mi West 15.0 mph - N/A Rain Light Rain
11:34 AM 33.8 °F 22.8 °F 28.4 °F 81% 30.24 in 10.0 mi West 18.4 mph - N/A   Mostly Cloudy
11:42 AM 33.8 °F 23.9 °F 28.4 °F 81% 30.24 in 10.0 mi West 15.0 mph - N/A   Mostly Cloudy
12:14 PM 35.6 °F 25.9 °F 26.6 °F 70% 30.23 in 10.0 mi West 16.1 mph - N/A   Partly Cloudy
12:33 PM 35.6 °F 25.5 °F 28.4 °F 75% 30.23 in 10.0 mi West 17.3 mph - N/A   Scattered Clouds
12:54 PM 35.6 °F 25.5 °F 26.6 °F 70% 30.23 in 10.0 mi West 17.3 mph - N/A   Mostly Cloudy
1:13 PM 33.8 °F 24.3 °F 26.6 °F 75% 30.24 in 10.0 mi West 13.8 mph - N/A   Mostly Cloudy
1:33 PM 33.8 °F 23.5 °F 24.8 °F 70% 30.25 in 10.0 mi West 16.1 mph - N/A   Overcast
1:45 PM 33.8 °F 23.5 °F 24.8 °F 70% 30.25 in 10.0 mi West 16.1 mph - N/A   Overcast
2:13 PM 33.8 °F 23.5 °F 24.8 °F 70% 30.25 in 10.0 mi West 16.1 mph - N/A   Overcast
2:33 PM 33.8 °F 24.8 °F 23.0 °F 65% 30.26 in 10.0 mi West 12.7 mph - N/A   Overcast
2:53 PM 32.0 °F 22.1 °F 24.1 °F 73% 30.27 in 10.0 mi West 13.8 mph - N/A   Overcast
3:13 PM 33.8 °F 25.3 °F 24.8 °F 70% 30.26 in 10.0 mi West 11.5 mph - N/A   Overcast
3:33 PM 33.8 °F 25.3 °F 24.8 °F 70% 30.26 in 10.0 mi West 11.5 mph - N/A   Overcast
3:52 PM 32.0 °F 24.8 °F 24.8 °F 75% 30.27 in 10.0 mi West 8.1 mph - N/A   Overcast
4:13 PM 32.0 °F 24.8 °F 24.8 °F 75% 30.28 in 10.0 mi West 8.1 mph - N/A Rain Light Rain
4:33 PM 32.0 °F 23.6 °F 24.8 °F 75% 30.27 in 10.0 mi West 10.4 mph - N/A   Overcast
4:50 PM 32.0 °F 23.0 °F 24.8 °F 75% 30.28 in 10.0 mi WSW 11.5 mph - N/A   Overcast
5:13 PM 32.0 °F 23.0 °F 23.0 °F 69% 30.29 in 10.0 mi West 11.5 mph - N/A   Overcast
5:33 PM 30.2 °F 20.2 °F 24.8 °F 80% 30.29 in 10.0 mi WSW 12.7 mph - N/A   Overcast
5:54 PM 30.2 °F 18.9 °F 24.8 °F 80% 30.28 in 10.0 mi WSW 16.1 mph - N/A   Overcast
6:13 PM 30.2 °F 19.8 °F 24.8 °F 80% 30.29 in 10.0 mi WSW 13.8 mph - N/A   Overcast
6:33 PM 30.2 °F 20.2 °F 23.0 °F 75% 30.30 in 10.0 mi WSW 12.7 mph - N/A   Overcast
6:54 PM 30.2 °F 19.8 °F 21.2 °F 69% 30.31 in 10.0 mi WSW 13.8 mph - N/A   Overcast
7:13 PM 30.2 °F 20.2 °F 21.2 °F 69% 30.31 in 10.0 mi WSW 12.7 mph - N/A   Overcast
7:33 PM 30.2 °F 19.8 °F 21.2 °F 69% 30.30 in 10.0 mi West 13.8 mph - N/A   Overcast
7:53 PM 30.0 °F 20.0 °F 22.1 °F 72% 30.31 in 10.0 mi WSW 12.7 mph - N/A   Overcast
8:13 PM 30.2 °F 19.3 °F 21.2 °F 69% 30.32 in 10.0 mi WSW 15.0 mph - N/A   Overcast
8:34 PM 30.2 °F 20.2 °F 21.2 °F 69% 30.30 in 10.0 mi WSW 12.7 mph - N/A   Overcast
8:53 PM 30.0 °F 20.5 °F 21.0 °F 69% 30.30 in 10.0 mi WSW 11.5 mph - N/A   Overcast
9:13 PM 28.4 °F 17.5 °F 19.4 °F 69% 30.30 in 10.0 mi WSW 13.8 mph - N/A   Overcast
9:28 PM 28.4 °F 17.5 °F 19.4 °F 69% 30.30 in 10.0 mi WSW 13.8 mph - N/A   Overcast
9:53 PM 28.4 °F 17.5 °F 19.4 °F 69% 30.30 in 10.0 mi WSW 13.8 mph - N/A   Overcast
10:13 PM 28.4 °F 16.6 °F 19.4 °F 69% 30.29 in 10.0 mi WSW 16.1 mph - N/A   Overcast
10:34 PM 28.4 °F 17.0 °F 17.6 °F 64% 30.30 in 10.0 mi West 15.0 mph - N/A   Overcast
10:53 PM 28.0 °F 15.7 °F 19.0 °F 69% 30.30 in 10.0 mi West 17.3 mph - N/A   Overcast
11:13 PM 26.6 °F 15.2 °F 17.6 °F 69% 30.31 in 10.0 mi West 13.8 mph - N/A   Overcast
11:34 PM 26.6 °F 14.7 °F 17.6 °F 69% 30.30 in 10.0 mi West 15.0 mph - N/A   Overcast
11:53 PM 27.1 °F 15.9 °F 18.1 °F 69% 30.29 in 10.0 mi West 13.8 mph - N/A   Overcast